Hourly Weather Abapo

Today, 25 October, Sunday

Time Temperature Precipitation Wind Pressure Humidity
00:00 +28°C° 0 mm 1 mps 706 mmHg 58%
01:00 +28°C° 0 mm 1 mps 705 mmHg 60%
02:00 +25°C° 0 mm 0 mps 705 mmHg 62%
03:00 +25°C° 0 mm 0 mps 705 mmHg 63%
04:00 +24°C° 0 mm 0 mps 705 mmHg 65%
05:00 +24°C° 0 mm 0 mps 705 mmHg 67%
06:00 +27°C° 0 mm 0 mps 705 mmHg 58%
07:00 +32°C° 0 mm 1 mps 706 mmHg 49%
08:00 +34°C° 0 mm 1 mps 707 mmHg 40%
09:00 +38°C° 0 mm 2 mps 706 mmHg 35%
10:00 +40°C° 0 mm 2 mps 706 mmHg 30%
11:00 +44°C° 0 mm 3 mps 706 mmHg 25%
12:00 +44°C° 0 mm 4 mps 705 mmHg 24%
13:00 +46°C° 0 mm 5 mps 704 mmHg 23%
14:00 +47°C° 0 mm 5 mps 704 mmHg 22%
15:00 +45°C° 0 mm 6 mps 703 mmHg 24%
16:00 +44°C° 0 mm 6 mps 703 mmHg 27%
17:00 +41°C° 0 mm 6 mps 702 mmHg 30%
18:00 +39°C° 0 mm 5 mps 703 mmHg 35%
19:00 +36°C° 0 mm 4 mps 703 mmHg 41%
20:00 +33°C° 0 mm 3 mps 704 mmHg 46%
21:00 +31°C° 0 mm 3 mps 704 mmHg 50%
22:00 +30°C° 0 mm 2 mps 704 mmHg 53%
23:00 +29°C° 0 mm 2 mps 704 mmHg 57%

Tomorrow, 26 October, Monday

Time Temperature Precipitation Wind Pressure Humidity
00:00 +28°C° 0 mm 1 mps 703 mmHg 59%
01:00 +27°C° 0 mm 1 mps 703 mmHg 62%
02:00 +26°C° 0 mm 1 mps 702 mmHg 65%
03:00 +27°C° 0 mm 1 mps 703 mmHg 64%
04:00 +27°C° 0 mm 2 mps 704 mmHg 64%
05:00 +27°C° 0 mm 2 mps 706 mmHg 63%
06:00 +27°C° 0.1 mm 3 mps 707 mmHg 63%
07:00 +28°C° 0.1 mm 3 mps 708 mmHg 63%
08:00 +28°C° 0.1 mm 3 mps 710 mmHg 63%
09:00 +28°C° 0.1 mm 3 mps 710 mmHg 63%
10:00 +28°C° 0.1 mm 3 mps 711 mmHg 63%
11:00 +28°C° 0.1 mm 3 mps 711 mmHg 64%
12:00 +28°C° 0.1 mm 3 mps 711 mmHg 59%
13:00 +29°C° 0.1 mm 4 mps 711 mmHg 54%
14:00 +29°C° 0.1 mm 4 mps 711 mmHg 49%
15:00 +29°C° 0 mm 3 mps 710 mmHg 49%
16:00 +29°C° 0 mm 3 mps 710 mmHg 48%
17:00 +29°C° 0 mm 3 mps 710 mmHg 48%
18:00 +28°C° 0 mm 2 mps 710 mmHg 52%
19:00 +27°C° 0 mm 1 mps 710 mmHg 56%
20:00 +26°C° 0 mm 1 mps 710 mmHg 60%
21:00 +25°C° 0 mm 1 mps 710 mmHg 63%
22:00 +24°C° 0 mm 1 mps 710 mmHg 66%
23:00 +23°C° 0 mm 1 mps 710 mmHg 70%

Day after tomorrow, 27 October, Tuesday

Time Temperature Precipitation Wind Pressure Humidity
00:00 +22°C° 0 mm 0 mps 710 mmHg 68%
01:00 +22°C° 0 mm 0 mps 709 mmHg 67%
02:00 +22°C° 0 mm 0 mps 708 mmHg 65%
03:00 +22°C° 0 mm 0 mps 708 mmHg 67%
04:00 +21°C° 0 mm 0 mps 708 mmHg 69%
05:00 +21°C° 0 mm 0 mps 708 mmHg 71%
06:00 +23°C° 0 mm 0 mps 708 mmHg 63%
07:00 +27°C° 0 mm 1 mps 708 mmHg 55%
08:00 +29°C° 0 mm 1 mps 709 mmHg 48%
09:00 +31°C° 0 mm 2 mps 708 mmHg 43%
10:00 +34°C° 0 mm 2 mps 708 mmHg 38%
11:00 +35°C° 0 mm 3 mps 708 mmHg 32%
12:00 +36°C° 0 mm 4 mps 707 mmHg 31%
13:00 +37°C° 0 mm 4 mps 706 mmHg 30%
14:00 +37°C° 0 mm 5 mps 705 mmHg 29%
15:00 +37°C° 0 mm 5 mps 704 mmHg 32%
16:00 +36°C° 0 mm 5 mps 703 mmHg 34%
17:00 +35°C° 0 mm 5 mps 703 mmHg 36%
18:00 +33°C° 0 mm 4 mps 703 mmHg 44%
19:00 +30°C° 0 mm 3 mps 703 mmHg 51%
20:00 +27°C° 0 mm 1 mps 703 mmHg 59%
21:00 +27°C° 0 mm 1 mps 703 mmHg 62%
22:00 +26°C° 0 mm 1 mps 703 mmHg 65%
23:00 +25°C° 0 mm 1 mps 703 mmHg 69%

28 October, Wednesday

Time Temperature Precipitation Wind Pressure Humidity
00:00 +24°C° 0 mm 1 mps 702 mmHg 70%
01:00 +24°C° 0 mm 1 mps 702 mmHg 72%
02:00 +23°C° 0 mm 1 mps 701 mmHg 74%
03:00 +23°C° 0 mm 1 mps 701 mmHg 75%
04:00 +23°C° 0 mm 1 mps 701 mmHg 76%
05:00 +22°C° 0 mm 1 mps 701 mmHg 77%
06:00 +26°C° 0 mm 1 mps 701 mmHg 65%
07:00 +27°C° 0 mm 0 mps 702 mmHg 53%
08:00 +31°C° 0 mm 0 mps 703 mmHg 41%
09:00 +36°C° 0 mm 1 mps 703 mmHg 34%
10:00 +41°C° 0 mm 1 mps 703 mmHg 27%
11:00 +45°C° 0 mm 2 mps 703 mmHg 20%
12:00 +46°C° 0 mm 2 mps 703 mmHg 18%
13:00 +47°C° 0 mm 3 mps 702 mmHg 15%
14:00 +49°C° 0 mm 4 mps 701 mmHg 12%
15:00 +47°C° 0 mm 5 mps 701 mmHg 17%
16:00 +45°C° 0 mm 5 mps 701 mmHg 22%
17:00 +42°C° 0 mm 5 mps 701 mmHg 27%
18:00 +38°C° 0 mm 4 mps 702 mmHg 35%
19:00 +35°C° 0 mm 3 mps 702 mmHg 42%
20:00 +31°C° 0 mm 2 mps 703 mmHg 49%
21:00 +29°C° 0.3 mm 3 mps 704 mmHg 58%
22:00 +27°C° 0.3 mm 4 mps 705 mmHg 67%
23:00 +25°C° 0.3 mm 5 mps 706 mmHg 76%

29 October, Thursday

Time Temperature Precipitation Wind Pressure Humidity
00:00 +23°C° 0 mm 5 mps 707 mmHg 73%
01:00 +22°C° 0 mm 4 mps 708 mmHg 70%
02:00 +21°C° 0 mm 4 mps 709 mmHg 67%
03:00 +20°C° 0.1 mm 4 mps 710 mmHg 64%
04:00 +20°C° 0.1 mm 4 mps 710 mmHg 61%
05:00 +19°C° 0.1 mm 3 mps 711 mmHg 57%
06:00 +20°C° 0 mm 4 mps 712 mmHg 52%
07:00 +20°C° 0 mm 4 mps 713 mmHg 47%
08:00 +21°C° 0 mm 4 mps 713 mmHg 42%
09:00 +22°C° 0 mm 4 mps 714 mmHg 37%
10:00 +25°C° 0 mm 4 mps 714 mmHg 31%
11:00 +27°C° 0 mm 4 mps 714 mmHg 26%
12:00 +28°C° 0 mm 4 mps 714 mmHg 24%
13:00 +29°C° 0 mm 4 mps 713 mmHg 22%
14:00 +30°C° 0 mm 4 mps 712 mmHg 20%
15:00 +30°C° 0 mm 4 mps 712 mmHg 20%
16:00 +30°C° 0 mm 4 mps 712 mmHg 20%
17:00 +29°C° 0 mm 4 mps 711 mmHg 19%
18:00 +28°C° 0 mm 3 mps 712 mmHg 21%
19:00 +26°C° 0 mm 3 mps 712 mmHg 22%
20:00 +25°C° 0 mm 2 mps 712 mmHg 23%
21:00 +24°C° 0 mm 2 mps 713 mmHg 24%
22:00 +23°C° 0 mm 2 mps 713 mmHg 26%
23:00 +23°C° 0 mm 2 mps 714 mmHg 27%

30 October, Friday

Time Temperature Precipitation Wind Pressure Humidity
00:00 +21°C° 0 mm 2 mps 713 mmHg 29%
01:00 +21°C° 0 mm 1 mps 713 mmHg 30%
02:00 +20°C° 0 mm 1 mps 713 mmHg 32%
03:00 +19°C° 0 mm 1 mps 713 mmHg 33%
04:00 +19°C° 0 mm 1 mps 713 mmHg 34%
05:00 +18°C° 0 mm 1 mps 713 mmHg 35%
06:00 +18°C° 0 mm 2 mps 714 mmHg 31%
07:00 +20°C° 0 mm 2 mps 715 mmHg 27%
08:00 +22°C° 0 mm 3 mps 716 mmHg 24%
09:00 +25°C° 0 mm 3 mps 716 mmHg 22%
10:00 +27°C° 0 mm 3 mps 715 mmHg 20%
11:00 +29°C° 0 mm 3 mps 715 mmHg 18%
12:00 +30°C° 0 mm 3 mps 714 mmHg 17%
13:00 +32°C° 0 mm 4 mps 714 mmHg 17%
14:00 +33°C° 0 mm 4 mps 713 mmHg 16%
15:00 +32°C° 0 mm 4 mps 713 mmHg 17%
16:00 +30°C° 0 mm 4 mps 712 mmHg 17%
17:00 +30°C° 0 mm 4 mps 712 mmHg 18%
18:00 +27°C° 0 mm 3 mps 713 mmHg 22%
19:00 +24°C° 0 mm 2 mps 713 mmHg 27%
20:00 +21°C° 0 mm 1 mps 714 mmHg 31%
21:00 +20°C° 0 mm 1 mps 714 mmHg 33%
22:00 +19°C° 0 mm 1 mps 714 mmHg 35%
23:00 +18°C° 0 mm 1 mps 715 mmHg 37%
Show more